Regional Weather Roundup
Issued by NWS Little Rock, AR

Home | Current Version | Previous Version | Text Only | Print | Product List | Glossary Off
Versions: 1 2 3 4 5 6 7 8 9 10 11 12 13 14 15 16 17 18 19 20 21 22 23 24 25 26 27 28 29 30 31 32 33 34 35 36 37 38 39 40 41 42 43 44 45 46 47 48 49 50

000
ASUS44 KLZK 261205
RWRLZK

WEATHER ROUNDUP FOR ARKANSAS
NATIONAL WEATHER SERVICE LITTLE ROCK AR
700 AM CDT TUE AUG 26 2014

NOTE: "FAIR" INDICATES FEW OR NO CLOUDS BELOW 12,000 FEET WITH NO
SIGNIFICANT WEATHER AND/OR OBSTRUCTIONS TO VISIBILITY.

ARZ001-003-010-029-261300-
NORTHWEST ARKANSAS

CITY           SKY/WX    TMP DP  RH WIND       PRES   REMARKS
FAYETTEVILLE   CLEAR     66  65  96 CALM      30.12R
6HR MIN TEMP:  65; 6HR MAX TEMP:  71;

FORT SMITH     PTCLDY    75  70  84 NE6       30.06R
6HR MIN TEMP:  75; 6HR MAX TEMP:  78;

HARRISON       PTCLDY    67  67 100 CALM      30.13R FOG
6HR MIN TEMP:  67; 6HR MAX TEMP:  73;

BENTONVILLE    CLEAR     72  66  83 CALM      30.13R
6HR MIN TEMP:  72; 6HR MAX TEMP:  77;

ROGERS         CLEAR     72  69  90 E5        30.13R
6HR MIN TEMP:  71; 6HR MAX TEMP:  77;

SILOAM SPGS    CLEAR     70  63  78 CALM      30.12R
6HR MIN TEMP:  70; 6HR MAX TEMP:  75;

HIGHFILL       CLEAR     69  65  86 NE3       30.11R
6HR MIN TEMP:  68; 6HR MAX TEMP:  75;

SPRINGDALE     CLEAR     72  68  88 CALM      30.14R
$$

ARZ004-005-016-261300-
NORTH CENTRAL ARKANSAS

CITY           SKY/WX    TMP DP  RH WIND       PRES   REMARKS
BATESVILLE     PTCLDY    73  72  94 CALM      30.08R
6HR MIN TEMP:  72; 6HR MAX TEMP:  79;

FLIPPIN        PTCLDY    70  66  88 CALM      30.10R
6HR MIN TEMP:  70; 6HR MAX TEMP:  75;

MTN HOME       PTCLDY    71  70  96 CALM      30.10R FOG
6HR MIN TEMP:  70; 6HR MAX TEMP:  77;

$$

ARZ040-041-261300-
WEST CENTRAL ARKANSAS

CITY           SKY/WX    TMP DP  RH WIND       PRES   REMARKS
MENA           PTCLDY    72  72 100 CALM      30.09R
MOUNT IDA      CLEAR     71  69  93 CALM      30.06R FOG
6HR MIN TEMP:  71; 6HR MAX TEMP:  75;

$$

ARZ009-017-025-026-028-261300-
NORTHEAST ARKANSAS

CITY           SKY/WX    TMP DP  RH WIND       PRES   REMARKS
CORNING          N/A     73  73 100 CALM      30.08R FOG
JONESBORO      CLEAR     74  72  93 CALM      30.07R
6HR MIN TEMP:  73; 6HR MAX TEMP:  77;

NEWPORT        PTCLDY    76  74  93 CALM      30.08R
6HR MIN TEMP:  74; 6HR MAX TEMP:  80;

WALNUT RIDGE   PTCLDY    70  70 100 CALM      30.07R
6HR MIN TEMP:  70; 6HR MAX TEMP:  75;

BLYTHEVILLE    CLEAR     75  75 100 CALM      30.08R
6HR MIN TEMP:  75; 6HR MAX TEMP:  80;

$$

ARZ022-023-033-042-044-261300-
CENTRAL ARKANSAS

CITY           SKY/WX    TMP DP  RH WIND       PRES   REMARKS
LITTLE ROCK    MOCLDY    78  75  90 CALM      30.07R
6HR MIN TEMP:  76; 6HR MAX TEMP:  79;

N LITTLE ROCK    N/A     77  76  98 CALM      30.07R
6HR MIN TEMP:  76; 6HR MAX TEMP:  80;

JACKSONVILLE   PTCLDY    75  74  96 CALM      30.07R
6HR MIN TEMP:  74; 6HR MAX TEMP:  78;

SEARCY           N/A     75  75 100 CALM        N/A
6HR MIN TEMP:  74; 6HR MAX TEMP:  80;

HOT SPRINGS    CLEAR     74  72  93 CALM      30.08R
6HR MIN TEMP:  73; 6HR MAX TEMP:  78;

RUSSELLVILLE   MOCLDY    73  71  93 CALM      30.07R FOG
6HR MIN TEMP:  73; 6HR MAX TEMP:  76;

CLINTON        FAIR      70  70 100 CALM      30.09R FOG
$$

ARZ036-261300-
EAST ARKANSAS

CITY           SKY/WX    TMP DP  RH WIND       PRES   REMARKS
WEST MEMPHIS     N/A    N/A N/A N/A MISG      30.06R
$$

ARZ050-053-066-070-073-261300-
SOUTHWEST ARKANSAS

CITY           SKY/WX    TMP DP  RH WIND       PRES   REMARKS
ARKADELPHIA    FAIR      72  72 100 CALM      30.06R FOG
6HR MIN TEMP:  72; 6HR MAX TEMP:  76; 6HR PCP: TRACE;

CAMDEN         CLEAR     72  68  88 CALM      30.05R FOG
TEXARKANA      CLEAR     71  71 100 CALM      30.05R FOG
6HR MIN TEMP:  71; 6HR MAX TEMP:  77;

EL DORADO        N/A    N/A N/A N/A MISG      30.05R
DE QUEEN       PTCLDY    72  71  97 NE3       30.03R FOG
6HR MIN TEMP:  72; 6HR MAX TEMP:  77;

$$

ARZ056-057-069-261300-
SOUTHEAST ARKANSAS

CITY           SKY/WX    TMP DP  RH WIND       PRES   REMARKS
PINE BLUFF     CLEAR     72  70  93 CALM      30.06R FOG
6HR MIN TEMP:  71; 6HR MAX TEMP:  75; 6HR PCP: TRACE;

STUTTGART      PTCLDY    77  73  88 E5        30.07R
6HR MIN TEMP:  75; 6HR MAX TEMP:  79;

MONTICELLO     CLEAR     73  71  93 CALM      30.05R
6HR MIN TEMP:  73; 6HR MAX TEMP:  76;


$$





USA.gov is the U.S. government's official web portal to all federal, state and local government web resources and services.